Flag for Germany Weather past 2 weeks in Salzgitter, Lower Saxony, Germany

Now
57 °F

Sunny.


Feels Like: 57 °F
Forecast: 47 / 63 °F
Wind: 2 mph from North

Location: Braunschweig

Current Time: May 23, 2015 at 12:57:50 AM

Latest Report: May 22, 2015 at 9:50 PM


Visibility: 10 mi

Pressure: 30.18 "Hg

Humidity: 67%

Dew point: 46 °F

Location of SalzgitterLocation

Historic Weather in Salzgitter — Graph

°F

Salzgitter temperature yesterday

Maximum temperature yesterday: 68 °F (at 4:20 PM)
Minimum temperature yesterday: 45 °F (at 6:20 AM)
Average temperature yesterday: 61 °F

Past Weeks' High & Low Weather Summary

 TemperatureHumidityPressure
High81 °F (May 12, 1:50 PM)100% (May 8, 6:20 AM)30.33 "Hg (May 8, 6:20 AM)
Low37 °F (May 15, 6:50 AM)30% (May 19, 5:20 PM)29.65 "Hg (May 18, 6:50 PM)
Average59 °F58%30.03 "Hg
* Reported May 7 9:20 PM — May 22 9:50 PM, Salzgitter, Weather by CustomWeather, © 2015

Note: Actual official high and low records may vary slightly from our data, if they occured in-between our weather recording intervals... More about our weather records

Advertising

Salzgitter weather history for previous 24 hours

 ConditionsComfort  
Time TempWeatherWind HumidityBarometerVisibility
9:50 PM
Fri, May 22
57 °FSunny.2 mph67%30.18 "Hg10 mi
9:20 PM59 °FSunny.3 mph59%30.18 "Hg10 mi
8:50 PM63 °FSunny.3 mph52%30.18 "Hg10 mi
8:20 PM64 °FPassing clouds.6 mph46%30.18 "HgN/A
7:50 PM66 °FPassing clouds.7 mph46%30.18 "HgN/A
7:20 PM66 °FSunny.3 mph46%30.18 "Hg10 mi
6:50 PM66 °FSunny.8 mph43%30.18 "Hg10 mi
6:20 PM66 °FPassing clouds.7 mph43%30.18 "HgN/A
5:50 PM66 °FPassing clouds.7 mph43%30.21 "HgN/A
5:20 PM64 °FPassing clouds.6 mph49%30.21 "HgN/A
4:50 PM68 °FPassing clouds.9 mph43%30.21 "HgN/A
4:20 PM68 °FPassing clouds.9 mph43%30.21 "HgN/A
3:50 PM66 °FPassing clouds.8 mph43%30.24 "HgN/A
3:20 PM66 °FScattered clouds.6 mph46%30.24 "HgN/A
2:50 PM63 °FScattered clouds.7 mph49%30.24 "HgN/A
2:20 PM64 °FScattered clouds.7 mph46%30.24 "HgN/A
1:50 PM64 °FPassing clouds.7 mph46%30.27 "HgN/A
1:20 PM63 °FPassing clouds.7 mph49%30.27 "HgN/A
12:50 PM63 °FPassing clouds.7 mph49%30.27 "HgN/A
12:20 PM63 °FPassing clouds.7 mph45%30.30 "HgN/A
11:50 AM61 °FPassing clouds.7 mph52%30.30 "HgN/A
11:20 AM61 °FPassing clouds.5 mph48%30.30 "HgN/A
10:50 AM61 °FPassing clouds.7 mph48%30.30 "HgN/A
10:20 AM59 °FSunny.5 mph55%30.30 "Hg10 mi
9:50 AM57 °FSunny.7 mph67%30.30 "Hg10 mi
9:20 AM57 °FSunny.5 mph67%30.30 "Hg10 mi
8:50 AM54 °FSunny.3 mph72%30.30 "Hg10 mi
8:20 AM52 °FSunny.5 mph77%30.33 "Hg10 mi
7:50 AM50 °FSunny.5 mph82%30.33 "Hg10 mi
7:20 AM48 °FSunny.5 mph82%30.30 "Hg10 mi
6:50 AM46 °FSunny.5 mph87%30.30 "Hg10 mi
6:20 AM45 °FSunny.3 mph93%30.30 "Hg10 mi
Weather by CustomWeather, © 2015

See weather overviewHow to use our weather pages